User: anonymous   Login
Location: Sawmill Trailhead
(33.5800°N, 116.4497°W)
Time: 04:24:35
(UTC-08:00)
Language:

Uosat F - Orbit

View from above orbital plane
View from above orbital plane
View from above satellite
View from above satellite

Ground track
Ground track

The orbit data is extracted from the following two-line orbital elements,

1 21575U 91050B   18053.49914980 -.00000003 +00000-0 +13515-4 0  9999
2 21575 098.7415 080.6642 0006207 275.9937 084.0543 14.40834158397123
Epoch (UTC): 22 February 2018 11:58:46
Eccentricity: 0.0006207
inclination: 98.7415°
perigee height: 751 km
apogee height: 760 km
right ascension of ascending node: 80.6642°
argument of perigee: 275.9937°
revolutions per day: 14.40834158
mean anomaly at epoch: 84.0543°
orbit number at epoch: 39712

The dashed part of the orbit path shows where the satellite is in the earth's shadow,  

DLR